Вернуться в каталог

STARLINK-4285

АктивенСвязьVLEO
NORAD 52991·PAYLOAD·🇺🇸 United States

Запущен Jul 7, 2022 с Cape Canaveral Space Force Station

Loading…

Ближайшие Пролёты (ближайшие 24 часа)

TLE

СвежийSource: CelesTrak SupGP

Эпоха: Sep 14, 2026, 20:53 UTC

1 52991C 22076F   26257.87062500 -.00029875  00000+0 -88291-3 0  2573
2 52991  53.1570 320.3831 0001386  80.7424 271.8956 15.34396687    13

Отслеживайте STARLINK-4285 в реальном времени с AllMySat

Download on the App Store